Fort Knox, KY

10:31 PM EDT on May 26, 2017 (GMT -0400)
Godman Army Air Field

Weather History for KFTK - June, 2014

Change the Weather History Date:

Monday, June 9, 2014

  Actual Average Record
Temperature  
Mean Temperature 68 °F -  
Max Temperature 74 °F 78 °F 92 °F (2008)
Min Temperature 61 °F 61 °F 50 °F (2016)
Cooling Degree Days 2    
Growing Degree Days 18 (Base 50)    
Moisture  
Dew Point 62 °F    
Average Humidity 84    
Maximum Humidity 100    
Minimum Humidity 66    
Precipitation  
Precipitation 0.00 in - - ()
Sea Level Pressure  
Sea Level Pressure 29.92 in    
Wind  
Wind Speed 4 mph (ENE)    
Max Wind Speed 10 mph    
Max Gust Speed -    
Visibility 10 miles    
Events Rain    
Averages and records for this station are not official NWS values.
T = Trace of Precipitation, MM = Missing Value Source: NWS Daily Summary

Daily Weather History Graph

Daily Weather History Graph

Search for Another Location

Airport or City:

Trip Planner

Search our weather history database for the weather conditions in past years. The results will help you decide how hot, cold, wet, or windy it might be!

Date:

Astronomy

Jun. 09, 2014 Rise Set
Actual Time 6:21 AM EDT 9:05 PM EDT
Civil Twilight 5:50 AM EDT 9:36 PM EDT
Nautical Twilight 5:11 AM EDT 10:15 PM EDT
Astronomical Twilight 4:27 AM EDT 10:59 PM EDT
Moon 5:28 PM EDT (6/9) 3:44 AM EDT (6/9)
Length of Visible Light 15h 46m
Length of Day
14h 44m
Waxing Gibbous, 85% of the Moon is Illuminated
Jun 9
Waxing Gibbous
Jun 13
Full
Jun 19
Last Quarter
Jun 27
New
Jul 5
First Quarter

Hourly Weather History & Observations

Time (EDT) Temp. Dew Point Humidity Pressure Visibility Wind Dir Wind Speed Gust Speed Precip Events Conditions
12:58 AM 64.4 °F 63.1 °F 96% 29.98 in 9.0 mi SW 2.3 mph - N/A   Overcast
1:07 AM 64.4 °F 62.6 °F 94% 29.98 in 10.0 mi Calm Calm - N/A Rain Light Rain
1:25 AM 64.4 °F 62.6 °F 94% 29.97 in 10.0 mi Calm Calm - N/A   Scattered Clouds
1:58 AM 64.4 °F 63.3 °F 96% 29.95 in 10.0 mi NE 3.5 mph - 0.00 in   Overcast
2:58 AM 63.1 °F 63.0 °F 99% 29.93 in 10.0 mi Calm Calm - N/A   Overcast
3:58 AM 62.2 °F 62.2 °F 100% 29.95 in 10.0 mi West 3.5 mph - N/A   Scattered Clouds
4:58 AM 62.1 °F 62.1 °F 100% 29.95 in 9.0 mi West 2.3 mph - N/A   Overcast
5:07 AM 62.6 °F 62.6 °F 100% 29.95 in 10.0 mi Calm Calm - N/A Rain Light Rain
5:13 AM 62.6 °F 62.6 °F 100% 29.95 in 10.0 mi North 1.2 mph - N/A   Overcast
5:58 AM 61.9 °F 61.9 °F 100% 29.95 in 9.0 mi North - - 0.00 in   Overcast
6:47 AM 62.6 °F 62.6 °F 100% 29.95 in 10.0 mi East 2.3 mph - N/A   Partly Cloudy
6:58 AM 63.5 °F 63.5 °F 100% 29.94 in 10.0 mi East 3.5 mph - N/A   Mostly Cloudy
7:58 AM 64.6 °F 63.5 °F 96% 29.97 in 10.0 mi NNW 4.6 mph - N/A   Partly Cloudy
8:58 AM 64.9 °F 61.9 °F 90% 29.93 in 10.0 mi NE 5.8 mph - N/A   Overcast
9:58 AM 64.9 °F 62.1 °F 90% 29.93 in 10.0 mi NE 8.1 mph - N/A   Overcast
10:58 AM 67.1 °F 61.7 °F 83% 29.93 in 10.0 mi ENE 6.9 mph - N/A   Mostly Cloudy
11:58 AM 67.1 °F 61.9 °F 83% 29.96 in 10.0 mi Variable 4.6 mph - N/A   Overcast
12:48 PM 68.0 °F 62.6 °F 83% 29.96 in 10.0 mi ENE 6.9 mph - N/A Rain Light Rain
12:58 PM 68.2 °F 63.7 °F 85% 29.96 in 10.0 mi ENE 6.9 mph - 0.00 in Rain Light Rain
1:23 PM 68.0 °F 62.6 °F 83% 29.95 in 10.0 mi NE 10.4 mph - N/A   Mostly Cloudy
1:24 PM 68.0 °F 62.6 °F 83% 29.95 in 10.0 mi ENE 10.4 mph - N/A Rain Light Rain
1:28 PM 68.0 °F 62.6 °F 83% 29.95 in 10.0 mi ENE 8.1 mph - N/A   Mostly Cloudy
1:58 PM 69.3 °F 61.5 °F 76% 29.94 in 10.0 mi NE 6.9 mph - 0.00 in   Scattered Clouds
2:58 PM 72.1 °F 61.7 °F 70% 29.91 in 10.0 mi NNE 5.8 mph - N/A   Scattered Clouds
3:33 PM 73.4 °F 62.6 °F 69% 29.91 in 10.0 mi Variable 5.8 mph - N/A   Mostly Cloudy
3:53 PM 73.4 °F 62.6 °F 69% 29.91 in 10.0 mi Variable 4.6 mph - N/A   Mostly Cloudy
3:58 PM 72.9 °F 61.9 °F 68% 29.91 in 10.0 mi East 8.1 mph - N/A   Mostly Cloudy
4:58 PM 74.3 °F 62.2 °F 66% 29.90 in 10.0 mi East 5.8 mph - N/A   Mostly Cloudy
5:58 PM 73.6 °F 62.1 °F 67% 29.88 in 10.0 mi East 8.1 mph - N/A   Scattered Clouds
6:24 PM 73.4 °F 62.6 °F 69% 29.88 in 10.0 mi ENE 9.2 mph - N/A   Light Drizzle
6:30 PM 73.4 °F 62.6 °F 69% 29.88 in 10.0 mi ENE 8.1 mph - N/A   Partly Cloudy
6:58 PM 73.4 °F 62.6 °F 69% 29.88 in 10.0 mi East 5.8 mph - 0.00 in   Scattered Clouds
7:58 PM 72.1 °F 62.1 °F 70% 29.87 in 10.0 mi ENE 6.9 mph - N/A   Clear
8:58 PM 70.5 °F 61.7 °F 74% 29.88 in 10.0 mi ENE 5.8 mph - N/A   Clear
9:26 PM 69.8 °F 62.6 °F 78% 29.88 in 10.0 mi East 4.6 mph - N/A   Light Drizzle
9:36 PM 69.8 °F 62.6 °F 78% 29.88 in 10.0 mi East 4.6 mph - N/A   Mostly Cloudy
9:58 PM 68.5 °F 62.6 °F 81% 29.89 in 10.0 mi East 4.6 mph - 0.00 in   Mostly Cloudy
10:40 PM 69.8 °F 62.6 °F 78% 29.88 in 10.0 mi East 5.8 mph - N/A Rain Light Rain
11:04 PM 68.0 °F 62.6 °F 83% 29.88 in 10.0 mi ENE 6.9 mph - N/A   Mostly Cloudy
11:23 PM 68.0 °F 62.6 °F 83% 29.89 in 10.0 mi East 5.8 mph - N/A Rain Light Rain
11:26 PM 68.0 °F 62.6 °F 83% 29.89 in 10.0 mi East 5.8 mph - N/A   Overcast
11:58 PM 67.1 °F 63.0 °F 87% 29.88 in 10.0 mi ENE 5.8 mph - 0.00 in   Overcast